Home   Weather   Ufa   Past weeks

Flag for Russia Past Weather in Ufa, Russia — Yesterday and Last 2 Weeks

Now
37 °F

Clear.


Feels Like: 33 °F
Forecast: 33 / 60 °F
Wind: 6 mph from Southwest

Location: Ufa

Current Time: Apr 27, 2017 at 3:02:53 am

Latest Report: Apr 27, 2017 at 2:00 am


Visibility: 10 mi

Pressure: 30.30 "Hg

Humidity: 65%

Dew Point: 27 °F

Location of UfaLocation

Past Weather in Ufa — Graph

°F

Ufa Temperature Yesterday

Maximum temperature yesterday: 54 °F (at 2:00 pm)
Minimum temperature yesterday: 30 °F (at 3:00 am)
Average temperature yesterday: 42 °F

High & Low Weather Summary for the Past Weeks

 TemperatureHumidityPressure
High68 °F (Apr 20, 1:30 pm)100% (Apr 15, 7:00 am)30.30 "Hg (Apr 15, 7:00 am)
Low27 °F (Apr 22, 1:30 am)32% (Apr 20, 4:30 pm)29.24 "Hg (Apr 15, 3:00 pm)
Average40 °F75%29.85 "Hg
* Reported Apr 12 2:00 am — Apr 27 2:00 am, Ufa, Weather by CustomWeather, © 2017

Note: Actual official high and low records may vary slightly from our data, if they occured in-between our weather recording intervals... More about our weather records

Advertising

Ufa Weather History for the Previous 24 Hours

Scroll right to see more
 ConditionsComfort  
Time TempWeatherWind HumidityBarometerVisibility
2:00 am
Thu, Apr 27
37 °FClear.6 mph65%30.30 "Hg10 mi
1:30 am37 °FClear.8 mph65%30.30 "Hg10 mi
1:00 am39 °FClear.6 mph61%30.30 "Hg10 mi
12:30 am39 °FPassing clouds.8 mph61%30.30 "HgN/A
11:30 pm
Wed, Apr 26
41 °FClear.8 mph57%30.27 "Hg10 mi
11:00 pm43 °FClear.8 mph53%30.27 "Hg10 mi
10:30 pm43 °FClear.8 mph57%30.27 "Hg10 mi
10:00 pm43 °FClear.8 mph57%30.24 "Hg10 mi
9:30 pm43 °FSunny.8 mph57%30.24 "Hg10 mi
9:00 pm43 °FSunny.8 mph57%30.24 "Hg10 mi
8:30 pm46 °FSunny.10 mph53%30.21 "Hg10 mi
8:00 pm48 °FPartly sunny.10 mph50%30.21 "HgN/A
7:30 pm52 °FPartly sunny.13 mph44%30.21 "HgN/A
7:00 pm52 °FPartly sunny.15 mph41%30.18 "HgN/A
6:30 pm52 °FPartly sunny.15 mph41%30.18 "HgN/A
6:00 pm52 °FPartly sunny.15 mph41%30.18 "HgN/A
5:00 pm54 °FPartly sunny.20 mph41%30.18 "HgN/A
4:30 pm52 °FPartly sunny.15 mph44%30.15 "HgN/A
4:00 pm54 °FPartly sunny.17 mph44%30.15 "HgN/A
3:30 pm52 °FPartly sunny.15 mph47%30.15 "HgN/A
3:00 pm54 °FPartly sunny.10 mph44%30.15 "HgN/A
2:30 pm50 °FSprinkles. Partly sunny.13 mph47%30.15 "HgN/A
2:00 pm54 °FPartly sunny.10 mph44%30.15 "HgN/A
1:30 pm52 °FPartly sunny.10 mph47%30.15 "HgN/A
1:00 pm52 °FPartly sunny.10 mph50%30.15 "HgN/A
12:30 pm50 °FPassing clouds.8 mph54%30.15 "HgN/A
12:00 pm50 °FPassing clouds.6 mph54%30.15 "HgN/A
11:30 am48 °FPassing clouds.3 mph58%30.15 "HgN/A
11:00 am46 °FPassing clouds.6 mph62%30.15 "HgN/A
10:30 am45 °FPassing clouds.6 mph66%30.15 "HgN/A
10:00 am43 °FSunny.1 mph71%30.12 "Hg10 mi
9:30 am39 °FSunny.1 mph75%30.12 "Hg10 mi
9:00 am37 °FSunny.1 mph87%30.12 "Hg10 mi
8:30 am37 °FSunny.1 mph81%30.12 "Hg10 mi
8:00 am36 °FSunny.No wind87%30.12 "Hg10 mi
7:30 am34 °FSunny.1 mph93%30.12 "Hg10 mi
7:00 am34 °FSunny.1 mph87%30.09 "Hg10 mi
6:30 am30 °FPassing clouds.1 mph93%30.09 "HgN/A
6:00 am32 °FPassing clouds.1 mph87%30.09 "HgN/A
5:30 am32 °FPassing clouds.1 mph87%30.07 "HgN/A
5:00 am32 °FPassing clouds.3 mph93%30.07 "HgN/A
4:30 am30 °FPassing clouds.1 mph86%30.07 "HgN/A
4:00 am30 °FClear.1 mph93%30.07 "Hg10 mi
3:30 am30 °FClear.1 mph93%30.07 "Hg10 mi
3:00 am30 °FClear.1 mph93%30.07 "Hg10 mi
Weather by CustomWeather, © 2017

See weather overviewHow to use our weather pages